Weather History for KPDC - May, 2009

Change the Weather History Date:

Tuesday, May 12, 2009

  Actual Average Record
Temperature  
Mean Temperature 57 °F -  
Max Temperature 72 °F 71 °F 88 °F (1961)
Min Temperature 42 °F 46 °F 32 °F (1969)
Degree Days  
Heating Degree Days 8    
Growing Degree Days 7 (Base 50)    
Moisture  
Dew Point 39 °F    
Average Humidity 53    
Maximum Humidity 85    
Minimum Humidity 30    
Precipitation  
Precipitation 0.00 in - - ()
Sea Level Pressure  
Sea Level Pressure 30.06 in    
Wind  
Wind Speed 6 mph (SE)    
Max Wind Speed 17 mph    
Max Gust Speed 26 mph    
Visibility 10 miles    
Events Rain    
Averages and records for this station are not official NWS values.
T = Trace of Precipitation, MM = Missing Value Source: NWS Daily Summary

Daily Weather History Graph

Daily Weather History Graph

Search for Another Location

Airport or City:

Trip Planner

Search our weather history database for the weather conditions in past years. The results will help you decide how hot, cold, wet, or windy it might be!

Date:

Astronomy

May. 12, 2009 Rise Set
Actual Time 5:44 AM CDT 8:18 PM CDT
Civil Twilight 5:11 AM CDT 8:50 PM CDT
Nautical Twilight 4:31 AM CDT 9:31 PM CDT
Astronomical Twilight 3:45 AM CDT 10:17 PM CDT
Moon No Moon Rise 7:52 AM CDT (5/12)
Length of Visible Light 15h 38m
Length of Day
14h 33m
Waning Gibbous, 88% of the Moon is Illuminated
May 12
Waning Gibbous
May 17
Last Quarter
May 24
New
May 30
First Quarter
Jun 7
Full

Hourly Weather History & Observations

Time (CDT) Temp. Windchill Dew Point Humidity Pressure Visibility Wind Dir Wind Speed Gust Speed Precip Events Conditions
12:15 AM 45.9 °F 44.6 °F 39.4 °F 78% 30.14 in 10.0 mi East 3.5 mph - N/A   Clear
12:35 AM 44.6 °F 43.1 °F 37.9 °F 77% 30.14 in 10.0 mi ESE 3.5 mph - N/A   Clear
12:55 AM 46.0 °F 44.8 °F 41.2 °F 83% 30.14 in 10.0 mi South 3.5 mph - N/A   Clear
1:15 AM 42.6 °F - 38.1 °F 84% 30.14 in 10.0 mi Calm Calm - N/A   Clear
1:35 AM 44.1 °F - 38.1 °F 80% 30.14 in 10.0 mi Calm Calm - N/A   Clear
1:55 AM 44.2 °F - 37.8 °F 78% 30.14 in 10.0 mi Calm Calm - N/A   Clear
2:15 AM 44.1 °F - 37.8 °F 78% 30.14 in 10.0 mi Calm Calm - N/A   Clear
2:35 AM 45.0 °F - 38.5 °F 78% 30.14 in 10.0 mi Calm Calm - N/A   Clear
2:55 AM 46.4 °F 45.2 °F 38.3 °F 73% 30.14 in 10.0 mi East 3.5 mph - N/A   Clear
3:15 AM 45.5 °F - 38.1 °F 75% 30.14 in 10.0 mi Calm Calm - N/A   Clear
3:35 AM 44.2 °F - 39.4 °F 83% 30.14 in 10.0 mi Calm Calm - N/A   Clear
3:55 AM 44.4 °F - 39.7 °F 84% 30.14 in 10.0 mi Calm Calm - N/A   Clear
4:15 AM 43.9 °F - 39.7 °F 85% 30.14 in 10.0 mi Calm Calm - N/A   Clear
4:35 AM 44.2 °F - 39.2 °F 82% 30.14 in 10.0 mi Calm Calm - N/A   Clear
4:55 AM 45.5 °F - 38.5 °F 76% 30.14 in 10.0 mi Calm Calm - N/A   Clear
5:15 AM 46.8 °F - 38.3 °F 72% 30.14 in 10.0 mi Calm Calm - N/A   Clear
5:35 AM 45.5 °F 43.2 °F 38.3 °F 76% 30.14 in 10.0 mi ENE 4.6 mph - N/A   Clear
6:15 AM 46.8 °F - 39.0 °F 74% 30.14 in 10.0 mi East 4.6 mph - N/A   Clear
6:35 AM 49.3 °F - 40.8 °F 73% 30.14 in 10.0 mi East 6.9 mph - N/A   Clear
6:55 AM 49.3 °F - 40.6 °F 72% 30.15 in 10.0 mi East 5.8 mph - N/A   Clear
7:15 AM 49.3 °F - 40.1 °F 71% 30.15 in 10.0 mi East 5.8 mph - N/A   Clear
7:35 AM 51.1 °F - 41.5 °F 70% 30.15 in 10.0 mi East 3.5 mph - N/A   Clear
7:55 AM 52.7 °F - 41.7 °F 66% 30.15 in 10.0 mi ESE 5.8 mph - N/A   Clear
8:15 AM 54.5 °F - 40.8 °F 60% 30.15 in 10.0 mi ESE 4.6 mph - N/A   Clear
8:35 AM 55.0 °F - 41.4 °F 60% 30.14 in 10.0 mi ESE 4.6 mph - N/A   Clear
8:55 AM 56.8 °F - 41.2 °F 56% 30.14 in 10.0 mi ESE 4.6 mph - N/A   Clear
9:15 AM 59.5 °F - 42.4 °F 53% 30.13 in 10.0 mi ESE 5.8 mph - N/A   Clear
9:35 AM 61.9 °F - 41.9 °F 48% 30.13 in 10.0 mi SE 6.9 mph - N/A   Clear
9:55 AM 62.4 °F - 40.8 °F 45% 30.11 in 10.0 mi SE 5.8 mph - N/A   Clear
10:15 AM 63.1 °F - 39.6 °F 42% 30.12 in 10.0 mi SSE 9.2 mph - N/A   Clear
10:35 AM 64.4 °F - 37.4 °F 37% 30.11 in 10.0 mi SSE 11.5 mph 18.4 mph N/A   Clear
10:55 AM 65.1 °F - 37.0 °F 35% 30.09 in 10.0 mi SE 10.4 mph 18.4 mph N/A   Clear
11:15 AM 67.1 °F - 37.2 °F 33% 30.08 in 10.0 mi SSE 15.0 mph 20.7 mph N/A   Clear
11:35 AM 67.3 °F - 36.9 °F 33% 30.07 in 10.0 mi ESE 11.5 mph 23.0 mph N/A   Clear
11:55 AM 67.8 °F - 37.6 °F 33% 30.06 in 10.0 mi South 9.2 mph 17.3 mph N/A   Clear
12:15 PM 69.1 °F - 38.5 °F 33% 30.06 in 10.0 mi South 13.8 mph 19.6 mph N/A   Clear
12:35 PM 69.4 °F - 37.9 °F 32% 30.04 in 10.0 mi SE 10.4 mph 20.7 mph N/A   Clear
12:55 PM 69.4 °F - 38.5 °F 32% 30.03 in 10.0 mi SSE 13.8 mph 19.6 mph N/A   Clear
1:15 PM 69.4 °F - 37.8 °F 31% 30.02 in 10.0 mi SSE 16.1 mph 21.9 mph N/A   Clear
1:35 PM 69.4 °F - 38.3 °F 32% 30.01 in 10.0 mi South 17.3 mph 26.5 mph N/A   Clear
1:55 PM 69.6 °F - 37.8 °F 31% 29.99 in 10.0 mi SSE 17.3 mph 23.0 mph N/A   Scattered Clouds
2:15 PM 69.4 °F - 37.8 °F 31% 29.98 in 10.0 mi SSE 13.8 mph 25.3 mph N/A   Scattered Clouds
2:35 PM 69.4 °F - 38.3 °F 32% 29.97 in 10.0 mi SSE 15.0 mph 21.9 mph N/A   Scattered Clouds
2:55 PM 69.4 °F - 38.5 °F 32% 29.96 in 10.0 mi SSE 15.0 mph 21.9 mph N/A   Scattered Clouds
3:15 PM 69.4 °F - 38.5 °F 32% 29.94 in 10.0 mi South 11.5 mph 17.3 mph N/A   Scattered Clouds
3:35 PM 71.4 °F - 39.7 °F 32% 29.92 in 10.0 mi SE 15.0 mph 25.3 mph N/A   Clear
3:55 PM 72.1 °F - 39.6 °F 31% 29.90 in 10.0 mi SE 16.1 mph 24.2 mph N/A   Scattered Clouds
4:15 PM 72.1 °F - 39.0 °F 30% 29.89 in 10.0 mi SE 16.1 mph 25.3 mph N/A   Scattered Clouds
4:35 PM 72.1 °F - 39.4 °F 30% 29.88 in 10.0 mi SSE 13.8 mph 25.3 mph N/A   Scattered Clouds
4:55 PM 69.8 °F - 38.7 °F 32% 29.89 in 10.0 mi SE 11.5 mph 21.9 mph N/A   Mostly Cloudy
5:15 PM 69.4 °F - 39.7 °F 34% 29.88 in 10.0 mi SSE 12.7 mph 23.0 mph N/A   Mostly Cloudy
5:35 PM 69.4 °F - 40.3 °F 35% 29.87 in 10.0 mi SE 15.0 mph 20.7 mph N/A   Mostly Cloudy
5:55 PM 69.4 °F - 40.3 °F 35% 29.86 in 10.0 mi SE 12.7 mph 21.9 mph N/A   Mostly Cloudy
6:15 PM 69.4 °F - 40.8 °F 35% 29.87 in 10.0 mi SSE 15.0 mph 20.7 mph N/A   Scattered Clouds
6:35 PM 69.4 °F - 41.7 °F 37% 29.87 in 10.0 mi SE 15.0 mph 20.7 mph N/A   Mostly Cloudy
6:55 PM 69.4 °F - 42.8 °F 38% 29.88 in 10.0 mi SE 9.2 mph 17.3 mph N/A   Overcast
7:15 PM 69.4 °F - 44.8 °F 41% 29.89 in 10.0 mi SSE 6.9 mph 17.3 mph N/A Rain Light Rain
7:35 PM 67.1 °F - 45.1 °F 45% 29.88 in 10.0 mi SE 10.4 mph 17.3 mph N/A   Drizzle
7:55 PM 67.1 °F - 43.3 °F 42% 29.86 in 10.0 mi SSE 11.5 mph 18.4 mph N/A   Overcast
8:15 PM 67.1 °F - 45.0 °F 45% 29.85 in 10.0 mi SE 11.5 mph 20.7 mph N/A Rain Light Rain
8:35 PM 64.4 °F - 45.1 °F 50% 29.85 in 10.0 mi South 10.4 mph 25.3 mph N/A Rain Rain
8:55 PM 60.1 °F - 49.1 °F 67% 29.83 in 10.0 mi SSE 16.1 mph 26.5 mph N/A Rain Light Rain
9:15 PM 58.5 °F - 50.5 °F 75% 29.86 in 10.0 mi SSE 6.9 mph 23.0 mph 0.01 in Rain Light Rain
9:55 PM 57.2 °F - 49.1 °F 74% 29.86 in 10.0 mi SE 8.1 mph - 0.02 in   Overcast
10:15 PM 57.2 °F - 48.9 °F 74% 29.89 in 10.0 mi SSE 4.6 mph - N/A   Drizzle
10:35 PM 56.8 °F - 49.5 °F 76% 29.89 in 7.0 mi ESE 5.8 mph - 0.01 in Rain Rain
10:55 PM 56.5 °F - 51.1 °F 82% 29.89 in 5.0 mi SE 5.8 mph - 0.06 in Rain Rain
11:15 PM 54.5 °F - 50.4 °F 86% 29.88 in 5.0 mi ESE 6.9 mph - 0.08 in Rain Rain
11:35 PM 54.5 °F - 50.4 °F 86% 29.87 in 7.0 mi ESE 8.1 mph - 0.12 in Rain Rain
11:55 PM 54.5 °F - 50.4 °F 86% 29.88 in 7.0 mi ESE 8.1 mph - 0.18 in Rain Rain